Weather History for Fort Smith, AR

Change the Weather History Date:

Friday, July 11, 2014

  Actual Average Record
Temperature  
Mean Temperature 82 °F 82 °F  
Max Temperature 93 °F 93 °F 107 °F (2011)
Min Temperature 70 °F 72 °F 57 °F (1961)
Cooling Degree Days 17 17  
Month to date cooling degree days 169 183  
Year to date cooling degree days 885 812  
Since 1 June cooling degree days 607 568  
Growing Degree Days 32 (Base 50)    
Moisture  
Dew Point 70 °F    
Average Humidity 72    
Maximum Humidity 97    
Minimum Humidity 47    
Precipitation  
Precipitation 0.00 in 0.11 in 2.80 in (1907)
Month to date precipitation 0.97 1.27  
Year to date precipitation 20.16 24.74  
Sea Level Pressure  
Sea Level Pressure 30.08 in    
Wind  
Wind Speed 6 mph (ESE)    
Max Wind Speed 13 mph    
Max Gust Speed 16 mph    
Visibility 10 miles    
Events      
T = Trace of Precipitation, MM = Missing Value Source: NWS Daily Summary

Daily Weather History Graph

Daily Weather History Graph

Search for Another Location

Airport:

Trip Planner

Search our weather history database for the weather conditions in past years. The results will help you decide how hot, cold, wet, or windy it might be!

Date:

Astronomy

Jul. 11, 2014 Rise Set
Actual Time 6:11 AM CDT 8:34 PM CDT
Civil Twilight 5:42 AM CDT 9:03 PM CDT
Nautical Twilight 5:05 AM CDT 9:39 PM CDT
Astronomical Twilight 4:26 AM CDT 10:19 PM CDT
Moon 7:47 PM CDT (7/11) 5:22 AM CDT (7/11)
Length of Visible Light 15h 21m
Length of Day
14h 22m
Waxing Gibbous, 99% of the Moon is Illuminated
Jul 11
Waxing Gibbous
Jul 12
Full
Jul 18
Last Quarter
Jul 26
New
Aug 3
First Quarter

Hourly Weather History & Observations

Time (CDT) Temp. Heat Index Dew Point Humidity Pressure Visibility Wind Dir Wind Speed Gust Speed Precip Events Conditions
12:53 AM 72.0 °F - 69.1 °F 91% 30.06 in 10.0 mi ENE 10.4 mph - N/A   Partly Cloudy
1:53 AM 72.0 °F - 69.1 °F 91% 30.06 in 10.0 mi East 5.8 mph - N/A   Mostly Cloudy
2:53 AM 72.0 °F - 70.0 °F 93% 30.05 in 10.0 mi East 5.8 mph - N/A   Mostly Cloudy
3:53 AM 71.1 °F - 69.1 °F 93% 30.05 in 10.0 mi ENE 9.2 mph - N/A   Partly Cloudy
4:53 AM 71.1 °F - 69.1 °F 93% 30.06 in 10.0 mi East 8.1 mph - N/A   Mostly Cloudy
5:53 AM 70.0 °F - 68.0 °F 93% 30.07 in 10.0 mi East 4.6 mph - N/A   Clear
6:53 AM 71.1 °F - 69.1 °F 93% 30.09 in 10.0 mi ENE 8.1 mph - N/A   Partly Cloudy
7:53 AM 73.0 °F - 69.1 °F 87% 30.11 in 10.0 mi East 6.9 mph - N/A   Clear
8:53 AM 75.9 °F - 70.0 °F 82% 30.12 in 10.0 mi ENE 4.6 mph - N/A   Clear
9:53 AM 80.1 °F 83.6 °F 71.1 °F 74% 30.12 in 10.0 mi ESE 5.8 mph - N/A   Clear
10:53 AM 82.9 °F 88.8 °F 73.0 °F 72% 30.13 in 10.0 mi ENE 5.8 mph - N/A   Clear
11:53 AM 86.0 °F 92.2 °F 72.0 °F 63% 30.13 in 10.0 mi NE 3.5 mph - N/A   Clear
12:53 PM 89.1 °F 95.0 °F 71.1 °F 55% 30.11 in 10.0 mi SSW 8.1 mph - N/A   Clear
1:53 PM 90.0 °F 96.4 °F 71.1 °F 54% 30.10 in 10.0 mi SW 3.5 mph - N/A   Clear
2:53 PM 91.0 °F 96.6 °F 70.0 °F 50% 30.09 in 10.0 mi SSW 10.4 mph - N/A   Clear
3:53 PM 91.0 °F 96.6 °F 70.0 °F 50% 30.07 in 10.0 mi SSW 9.2 mph - N/A   Clear
4:53 PM 91.9 °F 98.4 °F 71.1 °F 50% 30.06 in 10.0 mi South 5.8 mph - N/A   Clear
5:53 PM 91.9 °F 97.4 °F 70.0 °F 48% 30.05 in 10.0 mi South 8.1 mph - N/A   Clear
6:53 PM 91.0 °F 95.2 °F 68.0 °F 47% 30.04 in 10.0 mi SW 9.2 mph - N/A   Clear
7:53 PM 90.0 °F 94.5 °F 69.1 °F 50% 30.05 in 10.0 mi SSE 4.6 mph - N/A   Clear
8:53 PM 86.0 °F 92.2 °F 72.0 °F 63% 30.06 in 10.0 mi Calm Calm - N/A   Clear
9:53 PM 84.0 °F 89.6 °F 72.0 °F 67% 30.08 in 10.0 mi Calm Calm - N/A   Clear
10:53 PM 82.0 °F 86.7 °F 72.0 °F 71% 30.09 in 10.0 mi SSE 5.8 mph - N/A   Clear
11:53 PM 81.0 °F 85.2 °F 72.0 °F 74% 30.10 in 10.0 mi South 4.6 mph - N/A   Clear